| time (UTC) | temp C | wind direction | speed KPH | gust KPH | rain 1hr cm | rain 24hr cm | rain mn cm | humidity % | barometer mb |
| 20260509072715 | 14 | 169 | 0.0 | 0.0 | 0.00 | 0.05 | 0.03 | 67 | 1018.0 |
| 20260509072219 | 14 | 169 | 0.0 | 0.0 | 0.00 | 0.05 | 0.03 | 68 | 1018.0 |
| 20260509071711 | 14 | 148 | 0.0 | 0.0 | 0.00 | 0.05 | 0.03 | 70 | 1017.9 |
| 20260509071229 | 13 | 15 | 0.0 | 0.0 | 0.00 | 0.05 | 0.03 | 74 | 1017.9 |
| 20260509070728 | 13 | 15 | 0.0 | 0.0 | 0.00 | 0.05 | 0.03 | 76 | 1017.9 |
| 20260509070223 | 12 | 15 | 0.0 | 0.0 | 0.00 | 0.05 | 0.03 | 80 | 1017.9 |
| 20260509065715 | 12 | 15 | 0.0 | 0.0 | 0.00 | 0.05 | 0.03 | 80 | 1017.9 |
| 20260509065214 | 11 | 15 | 0.0 | 0.0 | 0.00 | 0.05 | 0.03 | 86 | 1017.9 |
| 20260509064726 | 11 | 15 | 0.0 | 0.0 | 0.00 | 0.05 | 0.03 | 86 | 1017.9 |
| 20260509063219 | 10 | 15 | 0.0 | 0.0 | 0.00 | 0.05 | 0.03 | 92 | 1017.8 |
| 20260509062226 | 8 | 15 | 0.0 | 0.0 | 0.00 | 0.05 | 0.03 | 93 | 1017.8 |
| 20260509061713 | 8 | 15 | 0.0 | 0.0 | 0.00 | 0.05 | 0.03 | 93 | 1017.8 |
| 20260509061216 | 8 | 15 | 0.0 | 0.0 | 0.00 | 0.05 | 0.03 | 93 | 1017.8 |
| 20260509060728 | 7 | 15 | 0.0 | 0.0 | 0.00 | 0.05 | 0.03 | 93 | 1017.7 |
| 20260509055720 | 7 | 15 | 0.0 | 0.0 | 0.00 | 0.05 | 0.03 | 92 | 1017.5 |
| 20260509055221 | 7 | 15 | 0.0 | 0.0 | 0.00 | 0.05 | 0.03 | 92 | 1017.5 |
| 20260509054722 | 7 | 15 | 0.0 | 0.0 | 0.00 | 0.05 | 0.03 | 92 | 1017.5 |
| 20260509053719 | 7 | 15 | 0.0 | 0.0 | 0.00 | 0.05 | 0.03 | 92 | 1017.7 |
| 20260509053223 | 7 | 15 | 0.0 | 0.0 | 0.00 | 0.05 | 0.03 | 92 | 1017.5 |
| 20260509052726 | 7 | 15 | 0.0 | 0.0 | 0.00 | 0.05 | 0.03 | 91 | 1017.5 |
| 20260509052212 | 7 | 15 | 0.0 | 0.0 | 0.00 | 0.05 | 0.03 | 91 | 1017.5 |
| 20260509051749 | 7 | 15 | 0.0 | 0.0 | 0.00 | 0.05 | 0.03 | 91 | 1017.5 |
| 20260509050709 | 6 | 15 | 0.0 | 0.0 | 0.00 | 0.05 | 0.03 | 91 | 1017.4 |
| 20260509050224 | 7 | 15 | 0.0 | 0.0 | 0.00 | 0.05 | 0.03 | 91 | 1017.4 |
| 20260509045712 | 7 | 15 | 0.0 | 0.0 | 0.00 | 0.05 | 0.03 | 91 | 1017.4 |
| 20260509045216 | 7 | 15 | 0.0 | 0.0 | 0.00 | 0.05 | 0.03 | 91 | 1017.4 |
| 20260509044727 | 7 | 15 | 0.0 | 0.0 | 0.00 | 0.05 | 0.03 | 91 | 1017.3 |
| 20260509043730 | 7 | 13 | 0.0 | 0.0 | 0.00 | 0.05 | 0.03 | 91 | 1017.2 |
| 20260509043218 | 7 | 13 | 0.0 | 0.0 | 0.00 | 0.05 | 0.03 | 91 | 1017.1 |
| 20260509042714 | 7 | 13 | 0.0 | 0.0 | 0.00 | 0.05 | 0.03 | 91 | 1017.1 |
| 20260509042223 | 7 | 13 | 0.0 | 0.0 | 0.00 | 0.05 | 0.03 | 91 | 1017.1 |
| 20260509041223 | 7 | 13 | 0.0 | 0.0 | 0.00 | 0.05 | 0.03 | 91 | 1017.0 |
| 20260509040718 | 7 | 5 | 0.0 | 0.0 | 0.00 | 0.05 | 0.03 | 91 | 1017.0 |
| 20260509040224 | 7 | 5 | 0.0 | 0.0 | 0.00 | 0.05 | 0.03 | 91 | 1017.1 |
| 20260509035723 | 7 | 5 | 0.0 | 0.0 | 0.00 | 0.05 | 0.03 | 91 | 1017.0 |
| 20260509035219 | 7 | 5 | 0.0 | 0.0 | 0.00 | 0.05 | 0.03 | 91 | 1017.1 |
| 20260509034713 | 7 | 5 | 0.0 | 0.0 | 0.00 | 0.05 | 0.03 | 91 | 1017.1 |
| 20260509034231 | 7 | 5 | 0.0 | 0.0 | 0.00 | 0.05 | 0.03 | 91 | 1017.1 |
| 20260509033224 | 7 | 5 | 0.0 | 0.0 | 0.00 | 0.05 | 0.03 | 91 | 1017.2 |
| 20260509032722 | 7 | 336 | 0.0 | 0.0 | 0.00 | 0.05 | 0.03 | 91 | 1017.2 |
| 20260509032211 | 7 | 331 | 0.0 | 0.0 | 0.00 | 0.05 | 0.03 | 91 | 1017.2 |
| 20260509031722 | 7 | 331 | 0.0 | 0.0 | 0.00 | 0.05 | 0.03 | 91 | 1017.2 |
| 20260509031215 | 7 | 331 | 0.0 | 0.0 | 0.00 | 0.05 | 0.03 | 91 | 1017.3 |
| 20260509030720 | 7 | 331 | 0.0 | 0.0 | 0.00 | 0.05 | 0.03 | 91 | 1017.3 |
| 20260509030221 | 7 | 331 | 0.0 | 0.0 | 0.00 | 0.05 | 0.03 | 91 | 1017.4 |
| 20260509025727 | 7 | 350 | 0.0 | 0.0 | 0.03 | 0.05 | 0.03 | 91 | 1017.4 |
| 20260509025238 | 7 | 350 | 0.0 | 0.0 | 0.03 | 0.05 | 0.03 | 91 | 1017.4 |
| 20260509024717 | 7 | 350 | 0.0 | 0.0 | 0.03 | 0.05 | 0.03 | 91 | 1017.4 |
| 20260509024219 | 7 | 350 | 0.0 | 0.0 | 0.03 | 0.05 | 0.03 | 91 | 1017.4 |
| 20260509023724 | 7 | 98 | 0.0 | 0.0 | 0.03 | 0.05 | 0.03 | 90 | 1017.4 |
| 20260509022227 | 7 | 98 | 0.0 | 0.0 | 0.03 | 0.05 | 0.03 | 90 | 1017.4 |
| 20260509021715 | 7 | 98 | 0.0 | 0.0 | 0.03 | 0.05 | 0.03 | 90 | 1017.4 |
| 20260509021232 | 7 | 98 | 0.0 | 0.0 | 0.03 | 0.05 | 0.03 | 90 | 1017.4 |
| 20260509020708 | 7 | 98 | 0.0 | 0.0 | 0.03 | 0.05 | 0.03 | 90 | 1017.4 |
| 20260509020212 | 7 | 98 | 0.0 | 0.0 | 0.03 | 0.05 | 0.03 | 90 | 1017.3 |
| 20260509015726 | 7 | 98 | 0.0 | 0.0 | 0.00 | 0.05 | 0.00 | 90 | 1017.3 |
| 20260509015214 | 7 | 98 | 0.0 | 0.0 | 0.00 | 0.05 | 0.00 | 89 | 1017.3 |
| 20260509013721 | 7 | 98 | 0.0 | 0.0 | 0.00 | 0.05 | 0.00 | 89 | 1017.3 |
| 20260509013218 | 7 | 98 | 0.0 | 0.0 | 0.00 | 0.05 | 0.00 | 89 | 1017.4 |
| 20260509012222 | 7 | 98 | 0.0 | 0.0 | 0.00 | 0.05 | 0.00 | 88 | 1017.4 |
| 20260509011721 | 8 | 98 | 0.0 | 0.0 | 0.00 | 0.05 | 0.00 | 88 | 1017.4 |
| 20260509011221 | 8 | 98 | 0.0 | 0.0 | 0.00 | 0.05 | 0.00 | 88 | 1017.4 |
| 20260509010220 | 8 | 98 | 0.0 | 0.0 | 0.00 | 0.05 | 0.00 | 88 | 1017.4 |
| 20260509005711 | 8 | 98 | 0.0 | 0.0 | 0.00 | 0.05 | 0.00 | 88 | 1017.5 |
| 20260509005223 | 8 | 98 | 0.0 | 0.0 | 0.00 | 0.05 | 0.00 | 88 | 1017.5 |
| 20260509004717 | 8 | 98 | 0.0 | 0.0 | 0.00 | 0.05 | 0.00 | 88 | 1017.5 |
| 20260509004223 | 8 | 98 | 0.0 | 0.0 | 0.00 | 0.05 | 0.00 | 88 | 1017.7 |
| 20260509003712 | 8 | 98 | 0.0 | 0.0 | 0.00 | 0.05 | 0.00 | 88 | 1017.5 |
| 20260509003213 | 8 | 98 | 0.0 | 0.0 | 0.00 | 0.05 | 0.00 | 88 | 1017.5 |
| 20260509002724 | 8 | 98 | 0.0 | 0.0 | 0.00 | 0.05 | 0.00 | 88 | 1017.5 |
| 20260509002221 | 8 | 98 | 0.0 | 0.0 | 0.00 | 0.05 | 0.00 | 88 | 1017.5 |
| 20260509001728 | 8 | 98 | 0.0 | 0.0 | 0.00 | 0.05 | 0.00 | 88 | 1017.5 |
| 20260509001210 | 8 | 98 | 0.0 | 0.0 | 0.00 | 0.05 | 0.00 | 88 | 1017.5 |
| 20260509000718 | 8 | 98 | 0.0 | 0.0 | 0.00 | 0.05 | 0.00 | 88 | 1017.5 |
| 20260509000220 | 8 | 98 | 0.0 | 0.0 | 0.00 | 0.05 | 0.00 | 87 | 1017.5 |
| 20260508235725 | 8 | 98 | 0.0 | 0.0 | 0.00 | 0.05 | 0.00 | 88 | 1017.5 |
| 20260508235222 | 8 | 98 | 0.0 | 0.0 | 0.00 | 0.05 | 0.00 | 88 | 1017.5 |
| 20260508234709 | 9 | 98 | 0.0 | 0.0 | 0.00 | 0.05 | 0.00 | 88 | 1017.4 |
| 20260508233722 | 9 | 105 | 0.0 | 0.0 | 0.00 | 0.05 | 0.00 | 88 | 1017.7 |
| 20260508233214 | 9 | 83 | 0.0 | 0.0 | 0.00 | 0.05 | 0.00 | 88 | 1017.5 |
| 20260508232712 | 9 | 90 | 0.0 | 0.0 | 0.00 | 0.05 | 0.00 | 88 | 1017.5 |
| 20260508231728 | 9 | 90 | 0.0 | 0.0 | 0.00 | 0.05 | 0.00 | 88 | 1017.5 |
| 20260508231222 | 9 | 102 | 0.0 | 0.0 | 0.00 | 0.05 | 0.00 | 88 | 1017.5 |
| 20260508230718 | 9 | 102 | 0.0 | 0.0 | 0.00 | 0.05 | 0.00 | 88 | 1017.5 |
| 20260508225719 | 10 | 105 | 0.0 | 0.0 | 0.00 | 0.05 | 0.00 | 87 | 1017.4 |
| 20260508225225 | 10 | 101 | 0.0 | 0.0 | 0.00 | 0.05 | 0.00 | 87 | 1017.4 |
| 20260508224726 | 10 | 39 | 0.0 | 0.0 | 0.00 | 0.05 | 0.00 | 88 | 1017.4 |
| 20260508224214 | 10 | 38 | 0.0 | 0.0 | 0.00 | 0.05 | 0.00 | 88 | 1017.5 |
| 20260508223716 | 10 | 5 | 0.0 | 0.0 | 0.00 | 0.05 | 0.00 | 88 | 1017.5 |
| 20260508223216 | 10 | 50 | 0.0 | 0.0 | 0.00 | 0.05 | 0.00 | 88 | 1017.5 |
| 20260508222212 | 10 | 17 | 0.0 | 0.0 | 0.00 | 0.05 | 0.00 | 88 | 1017.5 |
| 20260508221727 | 10 | 36 | 0.0 | 0.0 | 0.00 | 0.05 | 0.00 | 87 | 1017.7 |
| 20260508220733 | 10 | 36 | 0.0 | 0.0 | 0.00 | 0.05 | 0.00 | 88 | 1017.7 |
| 20260508220224 | 10 | 36 | 0.0 | 0.0 | 0.00 | 0.05 | 0.05 | 87 | 1017.7 |
| 20260508215717 | 10 | 24 | 0.0 | 0.0 | 0.00 | 0.05 | 0.05 | 87 | 1017.7 |
| 20260508214731 | 10 | 24 | 0.0 | 0.0 | 0.00 | 0.05 | 0.05 | 86 | 1017.4 |
| 20260508214226 | 10 | 24 | 0.0 | 0.0 | 0.00 | 0.05 | 0.05 | 85 | 1017.3 |
| 20260508213718 | 10 | 24 | 0.0 | 0.0 | 0.00 | 0.05 | 0.05 | 85 | 1017.3 |
| 20260508212728 | 11 | 24 | 0.0 | 0.0 | 0.00 | 0.05 | 0.05 | 84 | 1017.2 |
| 20260508212232 | 11 | 24 | 0.0 | 0.0 | 0.00 | 0.05 | 0.05 | 84 | 1017.2 |
| 20260508210723 | 11 | 24 | 0.0 | 0.0 | 0.03 | 0.05 | 0.05 | 84 | 1017.2 |
| 20260508210221 | 11 | 20 | 0.0 | 0.0 | 0.03 | 0.05 | 0.05 | 84 | 1017.2 |
| 20260508205723 | 11 | 355 | 0.0 | 0.0 | 0.03 | 0.05 | 0.05 | 84 | 1017.1 |
| 20260508204225 | 11 | 15 | 0.0 | 4.8 | 0.03 | 0.05 | 0.05 | 85 | 1017.0 |
| 20260508203723 | 11 | 20 | 0.0 | 0.0 | 0.03 | 0.05 | 0.05 | 84 | 1016.9 |
| 20260508203225 | 12 | 17 | 0.0 | 0.0 | 0.03 | 0.05 | 0.05 | 83 | 1016.9 |
| 20260508202224 | 12 | 326 | 0.0 | 0.0 | 0.03 | 0.05 | 0.05 | 82 | 1017.0 |
| 20260508201711 | 12 | 91 | 0.0 | 0.0 | 0.03 | 0.05 | 0.05 | 82 | 1017.0 |
| 20260508201230 | 12 | 93 | 0.0 | 3.2 | 0.00 | 0.03 | 0.03 | 79 | 1017.0 |
| 20260508200715 | 12 | 98 | 0.0 | 6.4 | 0.00 | 0.03 | 0.03 | 79 | 1017.0 |
| 20260508195721 | 12 | 347 | 0.0 | 0.0 | 0.00 | 0.03 | 0.03 | 79 | 1016.7 |
| 20260508195209 | 12 | 5 | 0.0 | 0.0 | 0.00 | 0.03 | 0.03 | 79 | 1016.7 |
| 20260508194713 | 12 | 5 | 0.0 | 0.0 | 0.00 | 0.03 | 0.03 | 78 | 1016.5 |
| 20260508194229 | 12 | 64 | 0.0 | 0.0 | 0.00 | 0.03 | 0.03 | 77 | 1016.5 |
| 20260508193728 | 12 | 64 | 0.0 | 0.0 | 0.00 | 0.03 | 0.03 | 76 | 1016.5 |
| 20260508193218 | 12 | 64 | 0.0 | 0.0 | 0.00 | 0.03 | 0.03 | 76 | 1016.4 |
| 20260508192714 | 12 | 64 | 0.0 | 0.0 | 0.00 | 0.03 | 0.03 | 76 | 1016.4 |
| 20260508192217 | 12 | 64 | 0.0 | 0.0 | 0.00 | 0.03 | 0.03 | 76 | 1016.2 |
| 20260508191718 | 13 | 36 | 0.0 | 0.0 | 0.00 | 0.03 | 0.03 | 76 | 1016.1 |
| 20260508191221 | 13 | 30 | 0.0 | 0.0 | 0.00 | 0.03 | 0.03 | 77 | 1016.0 |
| 20260508190724 | 13 | 30 | 0.0 | 0.0 | 0.00 | 0.03 | 0.03 | 76 | 1016.0 |
| 20260508185716 | 13 | 30 | 0.0 | 0.0 | 0.00 | 0.03 | 0.03 | 76 | 1016.0 |
| 20260508184714 | 13 | 5 | 0.0 | 0.0 | 0.00 | 0.03 | 0.03 | 76 | 1015.9 |
| 20260508184209 | 13 | 9 | 0.0 | 0.0 | 0.00 | 0.03 | 0.03 | 75 | 1015.9 |
| 20260508183731 | 13 | 9 | 0.0 | 0.0 | 0.00 | 0.03 | 0.03 | 74 | 1015.9 |
| 20260508183209 | 13 | 0 | 0.0 | 0.0 | 0.00 | 0.03 | 0.03 | 74 | 1015.8 |
| 20260508182215 | 13 | 339 | 0.0 | 0.0 | 0.00 | 0.03 | 0.03 | 72 | 1015.7 |
| 20260508181725 | 13 | 330 | 0.0 | 0.0 | 0.00 | 0.03 | 0.03 | 72 | 1015.6 |
| 20260508181221 | 14 | 347 | 0.0 | 0.0 | 0.00 | 0.03 | 0.03 | 70 | 1015.6 |
| 20260508180721 | 14 | 339 | 0.0 | 0.0 | 0.00 | 0.03 | 0.03 | 70 | 1015.5 |
| 20260508180224 | 14 | 355 | 0.0 | 0.0 | 0.00 | 0.03 | 0.03 | 69 | 1015.4 |
| 20260508175215 | 15 | 355 | 0.0 | 0.0 | 0.00 | 0.03 | 0.03 | 67 | 1015.3 |
| 20260508174732 | 15 | 0 | 0.0 | 0.0 | 0.00 | 0.03 | 0.03 | 66 | 1015.2 |
| 20260508174231 | 15 | 0 | 0.0 | 4.8 | 0.00 | 0.03 | 0.03 | 64 | 1015.1 |
| 20260508173222 | 16 | 26 | 0.0 | 4.8 | 0.00 | 0.03 | 0.03 | 61 | 1015.0 |
| 20260508172733 | 16 | 336 | 0.0 | 0.0 | 0.00 | 0.03 | 0.03 | 60 | 1014.8 |
| 20260508172222 | 17 | 350 | 0.0 | 8.0 | 0.00 | 0.03 | 0.03 | 59 | 1014.8 |
| 20260508171712 | 17 | 355 | 1.6 | 9.7 | 0.00 | 0.03 | 0.03 | 59 | 1014.7 |
| 20260508171220 | 17 | 339 | 4.8 | 11.3 | 0.00 | 0.03 | 0.03 | 59 | 1014.8 |
| 20260508170728 | 17 | 305 | 4.8 | 11.3 | 0.00 | 0.03 | 0.03 | 58 | 1014.7 |
| 20260508170220 | 17 | 312 | 4.8 | 11.3 | 0.00 | 0.03 | 0.03 | 58 | 1014.7 |
| 20260508165736 | 17 | 307 | 4.8 | 9.7 | 0.00 | 0.03 | 0.03 | 58 | 1014.6 |
| 20260508165216 | 17 | 306 | 3.2 | 9.7 | 0.00 | 0.03 | 0.03 | 62 | 1014.6 |
| 20260508164226 | 17 | 281 | 3.2 | 12.9 | 0.00 | 0.03 | 0.03 | 62 | 1014.6 |
| 20260508163221 | 16 | 272 | 4.8 | 14.5 | 0.00 | 0.03 | 0.03 | 64 | 1014.6 |
| 20260508162713 | 16 | 298 | 4.8 | 14.5 | 0.00 | 0.03 | 0.03 | 65 | 1014.6 |
| 20260508162222 | 16 | 304 | 1.6 | 0.0 | 0.00 | 0.03 | 0.03 | 67 | 1014.6 |
| 20260508161732 | 16 | 310 | 0.0 | 8.0 | 0.00 | 0.03 | 0.03 | 70 | 1014.6 |
| 20260508161227 | 16 | 281 | 0.0 | 8.0 | 0.00 | 0.03 | 0.03 | 69 | 1014.6 |
| 20260508160719 | 16 | 327 | 1.6 | 9.7 | 0.00 | 0.03 | 0.03 | 68 | 1014.8 |
| 20260508160208 | 16 | 289 | 1.6 | 9.7 | 0.00 | 0.03 | 0.03 | 67 | 1014.7 |
| 20260508155712 | 16 | 317 | 1.6 | 9.7 | 0.00 | 0.03 | 0.03 | 67 | 1014.7 |
| 20260508154727 | 16 | 302 | 4.8 | 12.9 | 0.00 | 0.03 | 0.03 | 65 | 1014.8 |
| 20260508154214 | 16 | 299 | 4.8 | 12.9 | 0.00 | 0.03 | 0.03 | 64 | 1014.7 |
| 20260508153711 | 17 | 281 | 8.0 | 12.9 | 0.00 | 0.03 | 0.03 | 63 | 1014.7 |
| 20260508153224 | 17 | 313 | 6.4 | 12.9 | 0.00 | 0.03 | 0.03 | 64 | 1014.7 |
| 20260508152725 | 17 | 307 | 4.8 | 11.3 | 0.00 | 0.03 | 0.03 | 64 | 1014.6 |
| 20260508151715 | 16 | 296 | 3.2 | 11.3 | 0.00 | 0.03 | 0.03 | 67 | 1014.8 |
| 20260508151227 | 16 | 287 | 1.6 | 11.3 | 0.00 | 0.03 | 0.03 | 67 | 1014.8 |
| 20260508150721 | 16 | 335 | 1.6 | 11.3 | 0.00 | 0.03 | 0.03 | 68 | 1014.8 |
| 20260508150223 | 16 | 317 | 3.2 | 11.3 | 0.00 | 0.03 | 0.03 | 67 | 1014.8 |
| 20260508145722 | 16 | 311 | 4.8 | 11.3 | 0.00 | 0.03 | 0.03 | 67 | 1015.0 |
| 20260508145214 | 16 | 326 | 3.2 | 9.7 | 0.00 | 0.03 | 0.03 | 67 | 1015.0 |
| 20260508144219 | 16 | 306 | 1.6 | 9.7 | 0.00 | 0.03 | 0.03 | 66 | 1015.0 |
| 20260508143732 | 16 | 300 | 3.2 | 14.5 | 0.00 | 0.03 | 0.03 | 66 | 1015.1 |
| 20260508143215 | 16 | 309 | 4.8 | 14.5 | 0.00 | 0.03 | 0.03 | 66 | 1015.1 |
| 20260508142729 | 16 | 329 | 4.8 | 14.5 | 0.00 | 0.03 | 0.03 | 65 | 1015.1 |
| 20260508142210 | 16 | 331 | 4.8 | 12.9 | 0.00 | 0.03 | 0.03 | 64 | 1015.1 |
| 20260508141217 | 16 | 322 | 1.6 | 11.3 | 0.00 | 0.03 | 0.03 | 61 | 1015.1 |
| 20260508140731 | 17 | 325 | 1.6 | 11.3 | 0.00 | 0.03 | 0.03 | 61 | 1015.2 |
| 20260508140214 | 17 | 334 | 1.6 | 8.0 | 0.00 | 0.03 | 0.03 | 60 | 1015.2 |
| 20260508135707 | 17 | 12 | 1.6 | 8.0 | 0.00 | 0.03 | 0.03 | 56 | 1015.2 |
| 20260508135208 | 17 | 10 | 1.6 | 9.7 | 0.00 | 0.03 | 0.03 | 57 | 1015.2 |
| 20260508134713 | 17 | 258 | 3.2 | 17.7 | 0.00 | 0.03 | 0.03 | 56 | 1015.3 |
| 20260508133720 | 18 | 343 | 6.4 | 17.7 | 0.00 | 0.03 | 0.03 | 59 | 1015.3 |
| 20260508133220 | 18 | 349 | 3.2 | 12.9 | 0.00 | 0.03 | 0.03 | 59 | 1015.3 |
| 20260508132719 | 18 | 294 | 1.6 | 8.0 | 0.00 | 0.03 | 0.03 | 55 | 1015.3 |
| 20260508132223 | 17 | 280 | 3.2 | 8.0 | 0.00 | 0.03 | 0.03 | 55 | 1015.2 |
| 20260508131733 | 17 | 317 | 3.2 | 9.7 | 0.00 | 0.03 | 0.03 | 56 | 1015.3 |
| 20260508131220 | 17 | 291 | 1.6 | 12.9 | 0.00 | 0.03 | 0.03 | 58 | 1015.3 |
| 20260508130731 | 17 | 316 | 1.6 | 20.9 | 0.00 | 0.03 | 0.03 | 57 | 1015.4 |
| 20260508130220 | 17 | 355 | 4.8 | 20.9 | 0.00 | 0.03 | 0.03 | 58 | 1015.4 |
| 20260508125723 | 17 | 264 | 9.7 | 14.5 | 0.00 | 0.03 | 0.03 | 59 | 1015.5 |
| 20260508125216 | 17 | 327 | 6.4 | 12.9 | 0.00 | 0.03 | 0.03 | 60 | 1015.5 |
| 20260508124722 | 16 | 290 | 3.2 | 4.8 | 0.00 | 0.03 | 0.03 | 58 | 1015.4 |
| 20260508124216 | 16 | 300 | 1.6 | 4.8 | 0.00 | 0.03 | 0.03 | 51 | 1015.5 |
| 20260508123726 | 16 | 228 | 0.0 | 4.8 | 0.00 | 0.03 | 0.03 | 50 | 1015.5 |
| 20260508122732 | 16 | 257 | 3.2 | 11.3 | 0.00 | 0.03 | 0.03 | 48 | 1015.5 |
| 20260508122221 | 16 | 259 | 3.2 | 12.9 | 0.00 | 0.03 | 0.03 | 51 | 1015.5 |
| 20260508121721 | 16 | 273 | 1.6 | 12.9 | 0.00 | 0.03 | 0.03 | 55 | 1015.6 |
| 20260508121211 | 16 | 290 | 3.2 | 12.9 | 0.00 | 0.03 | 0.03 | 53 | 1015.5 |
| 20260508120720 | 16 | 5 | 0.0 | 9.7 | 0.00 | 0.03 | 0.03 | 55 | 1015.5 |
| 20260508120221 | 16 | 350 | 1.6 | 9.7 | 0.00 | 0.03 | 0.03 | 58 | 1015.6 |
| 20260508115713 | 16 | 330 | 1.6 | 8.0 | 0.00 | 0.03 | 0.03 | 57 | 1015.6 |
| 20260508115217 | 16 | 355 | 0.0 | 6.4 | 0.00 | 0.03 | 0.03 | 54 | 1015.6 |
| 20260508114727 | 17 | 263 | 0.0 | 6.4 | 0.00 | 0.03 | 0.03 | 54 | 1015.6 |
| 20260508113718 | 17 | 335 | 1.6 | 17.7 | 0.00 | 0.03 | 0.03 | 53 | 1015.6 |
| 20260508113224 | 17 | 334 | 3.2 | 24.1 | 0.00 | 0.03 | 0.03 | 51 | 1015.6 |
| 20260508112707 | 17 | 186 | 8.0 | 24.1 | 0.00 | 0.03 | 0.03 | 52 | 1015.6 |
| 20260508112222 | 17 | 163 | 6.4 | 16.1 | 0.00 | 0.03 | 0.03 | 49 | 1015.7 |
| 20260508111714 | 17 | 147 | 3.2 | 16.1 | 0.00 | 0.03 | 0.03 | 53 | 1015.6 |
| 20260508110711 | 17 | 158 | 8.0 | 16.1 | 0.00 | 0.03 | 0.03 | 51 | 1015.7 |
| 20260508110229 | 17 | 163 | 8.0 | 16.1 | 0.00 | 0.03 | 0.03 | 51 | 1015.7 |
| 20260508105723 | 16 | 182 | 6.4 | 19.3 | 0.00 | 0.03 | 0.03 | 57 | 1015.7 |
| 20260508104712 | 16 | 130 | 9.7 | 16.1 | 0.00 | 0.03 | 0.03 | 58 | 1015.7 |
| 20260508104219 | 16 | 138 | 8.0 | 12.9 | 0.00 | 0.03 | 0.03 | 55 | 1015.7 |
| 20260508103715 | 16 | 159 | 4.8 | 12.9 | 0.00 | 0.03 | 0.03 | 54 | 1015.8 |
| 20260508103228 | 16 | 171 | 4.8 | 11.3 | 0.00 | 0.03 | 0.03 | 57 | 1015.8 |
| 20260508102717 | 16 | 120 | 1.6 | 11.3 | 0.00 | 0.03 | 0.03 | 57 | 1015.8 |
| 20260508102207 | 15 | 173 | 1.6 | 12.9 | 0.03 | 0.03 | 0.03 | 59 | 1015.8 |
| 20260508101724 | 15 | 167 | 3.2 | 12.9 | 0.03 | 0.03 | 0.03 | 58 | 1015.9 |
| 20260508100723 | 15 | 164 | 1.6 | 12.9 | 0.03 | 0.03 | 0.03 | 56 | 1015.8 |
| 20260508095211 | 16 | 161 | 6.4 | 14.5 | 0.03 | 0.03 | 0.03 | 60 | 1015.9 |
| 20260508094730 | 15 | 182 | 8.0 | 14.5 | 0.03 | 0.03 | 0.03 | 58 | 1016.0 |
| 20260508093724 | 16 | 158 | 6.4 | 14.5 | 0.03 | 0.03 | 0.03 | 59 | 1016.1 |
| 20260508093221 | 15 | 168 | 6.4 | 14.5 | 0.03 | 0.03 | 0.03 | 61 | 1016.0 |
| 20260508092724 | 15 | 179 | 4.8 | 12.9 | 0.03 | 0.03 | 0.03 | 61 | 1016.1 |
| 20260508092231 | 16 | 168 | 3.2 | 11.3 | 0.00 | 0.00 | 0.00 | 62 | 1016.1 |
| 20260508091714 | 15 | 158 | 1.6 | 11.3 | 0.00 | 0.00 | 0.00 | 63 | 1016.1 |
| 20260508091212 | 15 | 151 | 1.6 | 9.7 | 0.00 | 0.00 | 0.00 | 61 | 1016.1 |
| 20260508090719 | 15 | 143 | 1.6 | 9.7 | 0.00 | 0.00 | 0.00 | 61 | 1016.1 |
| 20260508085710 | 15 | 188 | 1.6 | 8.0 | 0.00 | 0.00 | 0.00 | 64 | 1016.0 |
| 20260508085214 | 15 | 205 | 0.0 | 8.0 | 0.00 | 0.00 | 0.00 | 65 | 1016.1 |
| 20260508084730 | 14 | 209 | 1.6 | 8.0 | 0.00 | 0.00 | 0.00 | 66 | 1016.1 |
| 20260508084221 | 14 | 211 | 1.6 | 6.4 | 0.00 | 0.00 | 0.00 | 68 | 1016.1 |
| 20260508083730 | 14 | 157 | 1.6 | 4.8 | 0.00 | 0.00 | 0.00 | 67 | 1016.1 |
| 20260508083225 | 14 | 196 | 0.0 | 4.8 | 0.00 | 0.00 | 0.00 | 67 | 1016.0 |
| 20260508082717 | 14 | 140 | 0.0 | 8.0 | 0.00 | 0.00 | 0.00 | 66 | 1016.0 |
| 20260508082215 | 14 | 141 | 1.6 | 8.0 | 0.00 | 0.00 | 0.00 | 67 | 1016.0 |
| 20260508081706 | 13 | 169 | 1.6 | 8.0 | 0.00 | 0.00 | 0.00 | 67 | 1016.0 |
| 20260508081207 | 13 | 168 | 1.6 | 6.4 | 0.00 | 0.00 | 0.00 | 68 | 1016.0 |
| 20260508080723 | 13 | 195 | 1.6 | 6.4 | 0.00 | 0.00 | 0.00 | 70 | 1016.0 |
| 20260508080227 | 13 | 172 | 1.6 | 6.4 | 0.00 | 0.00 | 0.00 | 71 | 1016.0 |
| 20260508075713 | 13 | 175 | 1.6 | 4.8 | 0.00 | 0.00 | 0.00 | 72 | 1015.9 |
| 20260508075224 | 13 | 120 | 0.0 | 0.0 | 0.00 | 0.00 | 0.00 | 74 | 1015.9 |
| 20260508074713 | 12 | 173 | 0.0 | 0.0 | 0.00 | 0.00 | 0.00 | 74 | 1015.9 |
| 20260508073711 | 12 | 177 | 0.0 | 0.0 | 0.00 | 0.00 | 0.00 | 76 | 1015.9 |
| 20260508073218 | 12 | 172 | 0.0 | 0.0 | 0.00 | 0.00 | 0.00 | 77 | 1015.9 |